| time (UTC) | temp F | wind direction | speed MPH | gust MPH | rain 1hr in | rain 24hr in | rain mn in | humidity % | barometer mb |
| 20260510230010 | 65 | 232 | 1.0 | 5.0 | 0.00 | 0.00 | 0.00 | 53 | 1018.3 |
| 20260510224518 | 65 | 183 | 2.0 | 6.0 | 0.00 | 0.00 | 0.00 | 53 | 1018.1 |
| 20260510223005 | 66 | 41 | 3.0 | 6.0 | 0.00 | 0.00 | 0.00 | 51 | 1018.2 |
| 20260510221514 | 66 | 165 | 2.0 | 8.0 | 0.00 | 0.00 | 0.00 | 52 | 1018.1 |
| 20260510220027 | 66 | 32 | 2.0 | 6.0 | 0.00 | 0.00 | 0.00 | 51 | 1017.9 |
| 20260510214530 | 67 | 44 | 2.0 | 11.0 | 0.00 | 0.00 | 0.00 | 53 | 1017.8 |
| 20260510213024 | 67 | 253 | 1.0 | 4.0 | 0.00 | 0.00 | 0.00 | 48 | 1017.3 |
| 20260510211523 | 66 | 258 | 1.0 | 6.0 | 0.00 | 0.00 | 0.00 | 50 | 1017.1 |
| 20260510210025 | 66 | 268 | 3.0 | 8.0 | 0.00 | 0.00 | 0.00 | 50 | 1017.1 |
| 20260510204524 | 66 | 213 | 1.0 | 9.0 | 0.00 | 0.00 | 0.00 | 48 | 1017.3 |
| 20260510203025 | 68 | 242 | 2.0 | 7.0 | 0.00 | 0.00 | 0.00 | 50 | 1017.4 |
| 20260510201523 | 67 | 38 | 1.0 | 9.0 | 0.00 | 0.00 | 0.00 | 52 | 1017.3 |
| 20260510200023 | 68 | 252 | 3.0 | 8.0 | 0.00 | 0.00 | 0.00 | 47 | 1017.4 |
| 20260510194526 | 67 | 25 | 3.0 | 11.0 | 0.00 | 0.00 | 0.00 | 46 | 1017.6 |
| 20260510193024 | 66 | 249 | 2.0 | 8.0 | 0.00 | 0.00 | 0.00 | 50 | 1017.5 |
| 20260510191503 | 66 | 59 | 2.0 | 5.0 | 0.00 | 0.00 | 0.00 | 51 | 1017.5 |
| 20260510190006 | 66 | 253 | 1.0 | 6.0 | 0.00 | 0.00 | 0.00 | 51 | 1017.6 |
| 20260510184526 | 67 | 66 | 2.0 | 8.0 | 0.00 | 0.00 | 0.00 | 50 | 1017.6 |
| 20260510183021 | 66 | 200 | 1.0 | 9.0 | 0.00 | 0.00 | 0.00 | 49 | 1017.5 |
| 20260510181526 | 67 | 247 | 3.0 | 9.0 | 0.00 | 0.00 | 0.00 | 50 | 1017.5 |
| 20260510180035 | 65 | 241 | 1.0 | 6.0 | 0.00 | 0.00 | 0.00 | 49 | 1017.5 |
| 20260510174527 | 67 | 28 | 2.0 | 8.0 | 0.00 | 0.00 | 0.00 | 52 | 1017.6 |
| 20260510173025 | 66 | 96 | 2.0 | 7.0 | 0.00 | 0.00 | 0.00 | 47 | 1017.1 |
| 20260510171507 | 65 | 252 | 2.0 | 6.0 | 0.00 | 0.00 | 0.00 | 48 | 1017.3 |
| 20260510170006 | 66 | 121 | 2.0 | 7.0 | 0.00 | 0.00 | 0.00 | 51 | 1017.5 |
| 20260510164543 | 65 | 208 | 1.0 | 9.0 | 0.00 | 0.00 | 0.00 | 51 | 1017.4 |
| 20260510163010 | 65 | 33 | 3.0 | 10.0 | 0.00 | 0.00 | 0.00 | 52 | 1017.4 |
| 20260510161527 | 65 | 43 | 1.0 | 5.0 | 0.00 | 0.00 | 0.00 | 54 | 1017.5 |
| 20260510160005 | 64 | 248 | 3.0 | 8.0 | 0.00 | 0.00 | 0.00 | 54 | 1017.3 |
| 20260510154527 | 63 | 234 | 2.0 | 5.0 | 0.00 | 0.00 | 0.00 | 57 | 1017.3 |
| 20260510153030 | 62 | 31 | 2.0 | 5.0 | 0.00 | 0.00 | 0.00 | 55 | 1017.2 |
| 20260510151508 | 61 | 256 | 1.0 | 8.0 | 0.00 | 0.00 | 0.00 | 58 | 1017.0 |
| 20260510150025 | 61 | 212 | 1.0 | 5.0 | 0.00 | 0.00 | 0.00 | 61 | 1016.8 |
| 20260510144527 | 61 | 135 | 1.0 | 5.0 | 0.00 | 0.00 | 0.00 | 62 | 1016.7 |
| 20260510143037 | 60 | 88 | 2.0 | 6.0 | 0.00 | 0.00 | 0.00 | 64 | 1016.4 |
| 20260510141525 | 60 | 46 | 2.0 | 5.0 | 0.00 | 0.00 | 0.00 | 69 | 1015.9 |
| 20260510140025 | 59 | 42 | 1.0 | 5.0 | 0.00 | 0.00 | 0.00 | 71 | 1015.8 |
| 20260510134525 | 57 | 78 | 1.0 | 4.0 | 0.00 | 0.00 | 0.00 | 74 | 1015.7 |
| 20260510133023 | 57 | 101 | 1.0 | 4.0 | 0.00 | 0.00 | 0.00 | 74 | 1015.4 |
| 20260510131524 | 56 | 82 | 1.0 | 4.0 | 0.00 | 0.00 | 0.00 | 76 | 1015.4 |
| 20260510130029 | 56 | 77 | 0.0 | 3.0 | 0.00 | 0.02 | 0.00 | 78 | 1015.1 |
| 20260510124529 | 54 | 221 | 0.0 | 3.0 | 0.00 | 0.02 | 0.00 | 81 | 1015.4 |
| 20260510123022 | 54 | 220 | 0.0 | 3.0 | 0.00 | 0.02 | 0.00 | 81 | 1015.1 |
| 20260510121520 | 55 | 33 | 0.0 | 1.0 | 0.00 | 0.02 | 0.00 | 81 | 1014.8 |
| 20260510120026 | 55 | 33 | 0.0 | 2.0 | 0.00 | 0.04 | 0.00 | 79 | 1014.7 |
| 20260510114523 | 55 | 33 | 0.0 | 4.0 | 0.00 | 0.04 | 0.00 | 79 | 1014.3 |
| 20260510113029 | 55 | 225 | 0.0 | 3.0 | 0.00 | 0.04 | 0.00 | 80 | 1014.2 |
| 20260510111531 | 55 | 253 | 0.0 | 5.0 | 0.00 | 0.04 | 0.00 | 80 | 1013.9 |
| 20260510110019 | 55 | 175 | 1.0 | 2.0 | 0.00 | 0.10 | 0.00 | 79 | 1013.7 |
| 20260510104524 | 55 | 190 | 0.0 | 3.0 | 0.00 | 0.10 | 0.00 | 78 | 1013.5 |
| 20260510103031 | 55 | 234 | 1.0 | 3.0 | 0.00 | 0.10 | 0.00 | 79 | 1013.3 |
| 20260510101520 | 56 | 236 | 0.0 | 3.0 | 0.00 | 0.10 | 0.00 | 81 | 1013.0 |
| 20260510100022 | 56 | 246 | 1.0 | 3.0 | 0.00 | 0.13 | 0.00 | 84 | 1012.6 |
| 20260510094519 | 56 | 260 | 1.0 | 3.0 | 0.00 | 0.13 | 0.00 | 85 | 1012.6 |
| 20260510093017 | 56 | 256 | 1.0 | 4.0 | 0.00 | 0.13 | 0.00 | 85 | 1012.6 |
| 20260510091541 | 56 | 294 | 0.0 | 2.0 | 0.00 | 0.13 | 0.00 | 86 | 1012.4 |
| 20260510090019 | 56 | 267 | 1.0 | 4.0 | 0.00 | 0.16 | 0.00 | 87 | 1012.0 |
| 20260510084525 | 55 | 271 | 0.0 | 2.0 | 0.00 | 0.16 | 0.00 | 88 | 1011.8 |
| 20260510083020 | 54 | 215 | 0.0 | 2.0 | 0.00 | 0.16 | 0.00 | 87 | 1011.6 |
| 20260510081532 | 55 | 214 | 0.0 | 0.0 | 0.00 | 0.16 | 0.00 | 86 | 1011.3 |
| 20260510080021 | 57 | 214 | 0.0 | 2.0 | 0.00 | 0.18 | 0.00 | 84 | 1011.2 |
| 20260510074520 | 57 | 214 | 0.0 | 1.0 | 0.00 | 0.18 | 0.00 | 84 | 1011.1 |
| 20260510073031 | 57 | 214 | 0.0 | 1.0 | 0.00 | 0.18 | 0.00 | 83 | 1011.1 |
| 20260510071533 | 58 | 214 | 0.0 | 3.0 | 0.00 | 0.18 | 0.00 | 82 | 1011.1 |
| 20260510070026 | 59 | 215 | 0.0 | 2.0 | 0.00 | 0.20 | 0.00 | 82 | 1011.2 |
| 20260510064546 | 59 | 223 | 0.0 | 3.0 | 0.00 | 0.20 | 0.00 | 81 | 1011.1 |
| 20260510063027 | 60 | 224 | 0.0 | 2.0 | 0.00 | 0.20 | 0.00 | 80 | 1011.4 |
| 20260510061532 | 60 | 236 | 1.0 | 4.0 | 0.00 | 0.20 | 0.00 | 79 | 1011.3 |
| 20260510060032 | 60 | 257 | 1.0 | 3.0 | 0.00 | 0.20 | 0.00 | 79 | 1011.4 |
| 20260510054527 | 60 | 233 | 1.0 | 7.0 | 0.00 | 0.20 | 0.00 | 78 | 1011.7 |
| 20260510053024 | 61 | 248 | 4.0 | 9.0 | 0.00 | 0.20 | 0.00 | 77 | 1011.3 |
| 20260510051523 | 62 | 226 | 3.0 | 7.0 | 0.00 | 0.20 | 0.00 | 76 | 1010.9 |
| 20260510050026 | 62 | 260 | 2.0 | 8.0 | 0.00 | 0.20 | 0.00 | 75 | 1010.9 |
| 20260510044530 | 62 | 242 | 2.0 | 8.0 | 0.00 | 0.20 | 0.00 | 74 | 1010.7 |
| 20260510043022 | 62 | 284 | 3.0 | 8.0 | 0.00 | 0.20 | 0.00 | 74 | 1010.5 |
| 20260510041521 | 62 | 291 | 4.0 | 8.0 | 0.00 | 0.20 | 0.00 | 74 | 1010.3 |
| 20260510040023 | 61 | 244 | 3.0 | 7.0 | 0.00 | 0.20 | 0.20 | 74 | 1010.4 |
| 20260510034519 | 62 | 232 | 2.0 | 7.0 | 0.00 | 0.20 | 0.20 | 73 | 1010.4 |
| 20260510033023 | 62 | 284 | 2.0 | 6.0 | 0.00 | 0.20 | 0.20 | 72 | 1010.3 |
| 20260510031521 | 62 | 205 | 3.0 | 6.0 | 0.00 | 0.20 | 0.20 | 72 | 1010.2 |
| 20260510030020 | 63 | 198 | 2.0 | 5.0 | 0.00 | 0.20 | 0.20 | 70 | 1010.1 |
| 20260510024524 | 64 | 234 | 3.0 | 9.0 | 0.00 | 0.20 | 0.20 | 69 | 1010.1 |
| 20260510023021 | 64 | 190 | 2.0 | 6.0 | 0.00 | 0.20 | 0.20 | 69 | 1010.1 |
| 20260510021525 | 64 | 222 | 2.0 | 5.0 | 0.00 | 0.20 | 0.20 | 68 | 1009.9 |
| 20260510020024 | 65 | 231 | 1.0 | 4.0 | 0.00 | 0.20 | 0.20 | 68 | 1009.8 |
| 20260510014527 | 65 | 209 | 2.0 | 7.0 | 0.00 | 0.20 | 0.20 | 67 | 1009.5 |
| 20260510013026 | 65 | 207 | 1.0 | 4.0 | 0.00 | 0.20 | 0.20 | 67 | 1009.3 |
| 20260510011524 | 65 | 229 | 1.0 | 4.0 | 0.00 | 0.20 | 0.20 | 66 | 1009.1 |
| 20260510010007 | 66 | 217 | 1.0 | 3.0 | 0.00 | 0.20 | 0.20 | 65 | 1009.0 |
| 20260510004524 | 67 | 254 | 1.0 | 4.0 | 0.00 | 0.20 | 0.20 | 64 | 1008.9 |
| 20260510003025 | 68 | 222 | 2.0 | 5.0 | 0.00 | 0.20 | 0.20 | 62 | 1008.7 |
| 20260510001525 | 68 | 281 | 3.0 | 7.0 | 0.00 | 0.20 | 0.20 | 61 | 1008.4 |
| 20260510000026 | 69 | 238 | 3.0 | 9.0 | 0.00 | 0.20 | 0.20 | 59 | 1008.2 |
| 20260509234504 | 70 | 287 | 4.0 | 10.0 | 0.00 | 0.20 | 0.20 | 57 | 1008.0 |
| 20260509233036 | 71 | 219 | 4.0 | 11.0 | 0.00 | 0.20 | 0.20 | 57 | 1008.1 |
| 20260509231527 | 71 | 240 | 5.0 | 11.0 | 0.00 | 0.20 | 0.20 | 56 | 1007.9 |